Theta_e
335 333 332 332 334 336 337 338 337 338 338 341 341 334 331 329 326 323 323 323 323 323 324 323 322 321 319 320 321 322 320 317 319 321 323 334 336 335 333 330 324 320 320
332 330 329 329 330 332 335 336 336 335 336 337 339 336 329 326 322 321 319 320 319 319 319 319 318 319 317 318 318 319 317 315 316 314 318 320 328 320 324 322 318 317 317
330 328 328 328 329 330 332 334 335 333 335 335 331 328 324 321 319 318 316 316 316 317 318 318 317 316 316 312 315 316 317 312 314 318 315 313 313 311 320 320 316 318 316
332 328 327 327 327 328 330 331 333 331 330 331 330 328 325 322 320 318 315 315 315 315 315 315 315 315 312 313 311 313 315 315 311 312 314 316 314 307 309 313 315 315 314
331 328 327 327 327 326 325 327 329 330 329 329 329 326 327 320 318 316 316 316 315 314 314 315 315 314 312 313 313 314 314 311 311 309 310 312 312 312 308 306 307 311 313
331 330 329 327 325 323 322 324 325 325 326 325 325 324 321 318 315 314 313 312 312 312 313 313 315 314 313 312 311 313 313 312 312 310 310 307 306 305 305 304 307 305 309
329 328 325 322 321 319 319 320 321 320 320 320 320 319 319 318 317 315 313 312 310 310 312 314 313 312 312 312 312 311 311 310 309 310 308 308 307 307 306 305 303 302 306
328 327 324 321 318 317 317 317 317 317 318 318 317 318 317 314 314 316 313 312 311 310 312 312 312 311 311 310 310 308 308 310 308 309 309 307 307 307 306 304 302 300 303
326 324 321 319 317 316 317 317 316 316 316 316 315 315 315 314 313 314 315 313 314 311 310 310 310 309 309 309 310 307 308 308 308 308 309 307 306 307 307 306 305 302 298
322 321 318 316 315 315 316 317 316 315 315 314 314 313 313 312 312 312 313 314 313 312 309 308 308 308 308 308 309 307 307 307 306 306 308 307 306 307 306 306 305 304 302
319 317 315 314 313 313 313 314 314 313 313 313 313 313 312 311 310 310 310 311 312 311 308 307 307 306 307 308 308 307 306 305 306 306 305 305 306 304 305 305 304 303 303
316 315 313 311 311 311 311 310 311 311 309 309 309 308 308 309 307 306 307 308 309 309 307 305 305 305 306 306 305 304 304 304 302 303 303 303 303 305 306 304 304 303 303
314 311 310 309 309 308 308 306 306 306 306 305 304 305 305 305 305 305 306 307 306 305 304 303 304 304 305 306 306 305 305 305 305 304 304 304 304 303 302 303 302 301 301
311 309 307 307 307 305 305 305 305 306 306 307 308 307 307 307 306 304 305 307 305 304 304 304 303 303 303 304 304 305 306 305 305 305 304 304 303 302 301 300 300 301 300
307 307 305 305 307 306 305 303 304 306 307 306 306 307 307 308 305 305 304 306 305 304 304 305 305 305 305 304 305 305 305 306 306 306 305 305 303 302 301 299 300 300 298
305 305 305 305 304 303 303 304 305 306 309 307 307 307 307 306 307 306 304 304 304 305 305 305 304 305 305 301 300 300 303 305 305 306 307 306 306 304 302 303 300 300 297
302 302 303 304 303 303 305 305 305 308 307 306 305 307 306 305 305 306 305 306 307 307 306 306 307 307 308 302 300 302 303 304 305 306 308 306 305 306 305 304 302 300 301
302 303 303 303 304 307 307 308 308 307 306 306 304 305 305 305 306 306 307 308 307 308 307 308 309 309 309 304 301 302 306 305 307 308 309 309 306 306 303 301 300 299 299
304 304 306 306 306 307 308 307 307 306 306 306 305 306 306 306 307 307 308 309 309 309 308 309 309 309 310 304 301 303 307 306 307 308 310 308 306 301 295 298 298 298 299
304 304 307 307 307 306 308 307 306 306 305 306 307 308 307 307 307 309 309 309 309 308 308 308 312 310 311 305 301 302 307 306 305 309 309 305 303 295 294 296 296 294 295
304 306 307 306 308 308 309 306 306 306 307 308 308 308 309 309 310 311 311 312 311 311 311 310 312 312 312 312 303 299 307 305 302 302 303 304 295 293 293 293 296 295 296
305 306 305 306 308 309 307 306 306 309 308 308 308 309 310 310 309 312 312 313 313 311 311 312 313 314 314 305 300 298 296 299 300 301 302 303 294 294 294 294 294 294 295
305 307 306 307 308 308 307 306 307 309 309 309 309 310 311 311 311 312 312 312 313 313 312 312 311 313 313 312 301 299 296 296 296 301 300 296 294 294 295 294 294 294 296
305 306 305 304 305 306 306 306 308 309 309 309 309 310 311 311 313 311 311 311 311 307 310 304 299 303 304 306 306 305 305 298 298 300 299 297 295 295 297 296 298 298 297
306 306 306 306 307 308 308 309 309 310 308 309 309 310 310 312 310 313 314 312 309 306 302 300 299 300 302 301 293 292 297 298 295 292 296 296 297 297 297 297 297 297 296
307 307 307 307 307 307 308 310 311 311 310 309 308 309 309 309 313 312 309 298 299 298 297 295 297 302 297 291 291 291 291 291 291 293 294 295 296 295 295 294 294 295 295
Wind_Speed
19 17 14 13 11 11 11 11 8 9 9 8 8 6 6 4 5 5 5 6 6 6 6 4 3 4 6 6 7 5 3 5 8 9 4 6 5 4 3 5 7 8 7
19 18 18 15 14 12 12 12 11 9 8 6 5 1 4 3 4 5 6 8 7 6 7 5 4 6 5 7 7 7 5 5 8 6 7 4 8 4 7 5 7 7 6
21 19 19 17 15 14 13 12 12 11 9 5 5 4 5 6 5 6 5 6 6 7 7 6 5 5 6 6 7 7 7 4 5 9 6 4 3 4 8 7 6 6 5
21 20 19 18 16 13 12 11 11 10 7 7 8 7 7 6 6 4 6 6 7 7 8 5 6 7 5 7 6 5 4 6 6 4 6 7 7 5 2 3 7 5 6
23 22 20 17 15 13 11 10 10 10 9 8 5 6 6 6 5 6 7 8 6 6 6 5 5 5 5 7 6 6 9 6 6 5 4 3 2 4 3 3 6 6 3
24 21 19 15 13 12 11 11 11 9 8 7 5 4 7 6 7 7 7 7 7 6 5 6 6 6 5 6 6 7 9 8 7 5 5 5 4 5 4 5 6 7 6
25 22 19 16 13 13 12 11 11 10 9 9 8 8 7 6 6 7 4 6 6 6 5 5 4 6 6 6 6 7 7 8 7 8 5 4 5 5 5 6 7 8 7
20 21 18 15 14 14 13 12 12 12 11 10 10 8 8 7 6 1 6 3 6 6 5 5 6 6 5 5 4 5 6 5 6 6 6 4 5 5 5 5 7 8 7
19 19 18 14 14 14 13 12 12 12 11 10 9 8 5 4 9 6 3 5 7 7 6 5 6 5 5 4 4 5 5 4 3 5 5 5 5 4 5 5 5 6 8
17 18 17 14 13 12 11 12 12 12 12 11 9 8 8 7 6 5 6 6 7 8 6 5 5 4 5 4 2 5 5 4 4 4 4 6 6 6 5 6 6 5 7
15 15 16 14 14 13 13 12 12 12 11 10 9 9 9 7 6 6 7 7 6 6 5 4 3 4 5 4 4 4 4 5 5 5 5 6 6 7 6 7 7 7 8
15 16 16 15 13 12 12 11 8 11 14 13 11 10 6 7 6 6 6 5 4 4 4 6 4 3 5 4 4 3 4 4 4 4 4 5 5 6 6 7 8 8 9
19 18 15 13 12 14 14 13 12 11 10 9 8 7 5 5 4 4 4 5 5 4 3 1 3 5 5 5 3 3 3 2 2 4 5 6 6 7 7 8 8 9 9
18 18 16 14 16 13 13 13 12 9 6 5 5 6 4 3 3 3 3 6 5 6 7 7 5 4 4 4 3 1 1 4 5 4 5 5 6 7 8 8 10 9 11
19 17 16 14 13 13 12 10 7 4 5 5 5 5 7 6 4 5 4 7 4 3 4 6 6 4 4 5 3 5 5 4 5 5 7 7 6 11 8 7 9 11 11
20 16 15 15 12 10 9 8 9 8 8 8 8 7 7 8 9 7 6 7 9 8 8 7 6 6 7 10 6 4 7 8 8 9 8 8 11 1 10 13 11 11 13
16 15 13 11 10 9 9 10 10 11 10 9 5 7 5 4 5 7 8 9 10 9 8 8 8 8 9 10 11 11 8 9 10 11 10 9 8 8 10 7 11 15 16
14 12 9 9 10 14 14 11 10 9 7 8 8 9 8 7 7 8 8 9 8 9 8 9 10 9 9 12 12 12 10 11 12 13 12 9 10 11 8 12 14 15 16
11 7 7 10 12 9 8 6 6 5 6 7 6 7 8 9 8 9 9 8 9 9 10 9 10 10 10 11 13 10 10 12 13 11 9 9 12 8 5 8 14 17 16
7 6 6 8 3 3 4 6 8 6 8 8 5 3 5 6 6 7 8 7 8 9 9 10 8 9 11 7 14 14 9 10 11 10 8 9 5 8 5 9 14 17 16
1 6 10 9 9 6 5 5 4 5 5 5 4 5 6 6 7 7 8 7 9 10 8 10 9 10 10 10 7 9 7 10 10 9 9 6 10 7 9 10 12 14 16
10 9 8 8 5 7 3 4 5 5 4 4 5 5 5 6 4 8 8 10 9 10 10 11 10 10 9 1 8 9 8 7 9 11 10 10 9 13 13 11 17 17 16
8 6 5 5 6 5 5 6 5 6 6 6 7 6 7 8 10 10 9 8 9 8 9 8 9 7 5 4 5 7 8 10 9 9 9 12 12 18 18 22 26 22 13
6 7 8 7 7 6 6 5 4 5 6 7 8 8 8 10 9 8 9 8 6 4 4 5 6 7 4 4 6 6 7 13 11 10 8 13 16 23 22 16 14 9 11
6 6 6 6 7 7 7 8 9 9 9 10 9 10 10 9 10 8 6 5 4 3 2 3 3 2 5 1 2 5 8 8 9 10 11 11 11 10 10 10 11 10 11
7 6 6 6 6 6 7 8 9 10 10 10 10 8 9 7 4 6 3 4 5 7 4 2 3 2 2 6 1 3 5 7 9 9 11 11 10 10 10 11 11 11 12
Wind_Direction
181 181 186 176 185 184 176 180 183 164 179 177 204 171 161 118 104 93 73 60 35 38 9 35 24 69 44 23 6 330 69 16 350 272 194 120 146 64 49 56 43 12 33
186 183 184 182 185 185 186 178 187 169 210 186 229 203 123 101 101 92 74 66 55 42 70 16 46 358 93 36 18 19 325 67 22 348 276 192 156 135 64 47 54 22 30
186 186 188 189 187 187 186 184 182 176 207 165 116 127 118 143 163 137 106 84 78 78 68 55 39 54 33 58 17 355 26 38 70 30 344 299 32 331 141 112 67 24 32
193 188 192 190 190 186 185 182 182 169 180 175 172 178 200 185 97 123 92 102 91 80 86 82 76 52 52 51 36 6 341 11 34 47 62 45 19 358 211 109 70 0 22
193 189 189 185 188 178 178 166 169 167 151 184 175 179 214 116 146 113 133 87 86 89 96 90 79 64 80 70 55 39 26 50 29 23 18 14 132 33 344 321 355 5 3
187 183 174 174 182 169 165 156 157 151 154 160 157 208 121 157 135 153 164 149 129 117 90 92 89 75 80 63 58 58 50 49 28 27 18 21 8 7 352 333 337 335 341
177 167 162 169 165 175 156 152 148 145 144 141 133 132 135 144 136 179 169 146 135 113 95 98 84 89 72 67 54 59 60 52 43 15 2 25 27 357 357 345 349 333 333
153 154 161 163 168 160 158 147 147 142 142 137 132 130 137 161 148 29 127 135 102 99 106 94 95 92 85 77 77 72 67 45 65 40 8 355 17 5 13 360 349 336 330
139 148 149 163 167 156 151 147 147 141 138 130 126 130 113 114 75 101 153 110 100 119 94 94 95 94 79 83 119 64 72 81 42 76 23 350 15 8 356 352 356 338 327
141 144 149 152 145 144 144 143 147 140 132 128 134 123 111 109 113 107 60 80 89 89 110 93 102 100 87 71 349 127 82 65 43 53 35 7 12 4 348 352 341 335 321
143 144 137 141 138 144 147 147 136 134 138 132 111 119 100 89 85 106 120 116 128 126 103 94 101 97 85 83 102 103 91 79 58 35 24 24 11 1 2 341 339 331 320
140 137 134 140 138 149 137 136 125 94 67 63 63 73 83 82 88 92 97 99 115 123 129 125 145 119 112 109 112 78 89 82 73 39 23 14 5 346 348 332 342 316 320
140 137 137 132 130 95 89 84 81 81 86 95 112 121 128 106 82 87 72 63 54 43 68 54 205 155 156 157 170 129 110 81 40 24 357 356 353 347 337 329 329 323 322
136 136 134 117 102 97 92 87 77 69 59 59 66 85 67 61 76 90 160 169 181 186 185 186 192 194 202 195 193 158 359 4 0 339 334 310 295 337 329 318 324 322 324
139 136 120 112 117 108 100 95 109 133 161 167 188 188 187 191 153 161 174 225 200 214 219 199 210 239 252 238 32 344 319 311 293 297 283 291 329 275 265 292 315 313 312
114 120 124 125 121 116 127 152 183 201 203 192 207 209 188 194 194 163 192 194 215 217 223 232 233 233 252 126 155 247 287 301 292 286 289 295 280 159 214 252 260 277 293
124 128 134 136 133 143 175 184 194 198 177 190 226 175 158 222 230 201 210 223 218 213 235 247 242 241 248 178 196 207 253 273 280 285 277 281 296 323 302 320 308 308 297
124 125 135 138 169 194 187 204 178 170 186 180 194 201 190 214 212 228 225 217 228 241 244 244 237 242 243 198 204 209 253 270 273 270 270 279 287 289 292 289 295 305 305
99 104 158 186 207 196 178 158 157 199 181 198 194 206 209 198 204 215 217 219 232 228 226 238 249 250 256 194 200 196 259 270 279 276 273 273 283 306 119 294 299 307 302
116 157 194 157 82 152 216 222 190 192 196 200 198 205 211 222 223 227 222 231 230 240 249 247 249 254 260 236 189 201 263 277 289 283 282 260 298 72 22 314 310 305 303
149 251 206 214 194 164 195 229 225 196 183 206 190 195 205 212 234 247 243 239 239 256 246 263 272 275 274 273 180 191 277 292 285 291 301 293 128 185 218 249 303 294 293
191 193 172 180 198 184 212 224 208 198 209 191 211 205 212 238 240 236 246 253 257 262 261 264 264 267 265 118 157 187 225 303 290 286 290 301 351 330 302 275 273 266 272
187 191 209 192 198 166 215 205 208 185 204 213 213 232 251 252 247 256 267 269 264 250 264 264 270 272 296 291 264 223 223 240 251 271 302 313 298 278 273 252 255 261 268
200 178 185 188 193 205 210 224 232 216 241 247 257 256 259 258 271 273 274 277 306 354 342 30 24 355 347 331 329 285 253 241 237 264 300 311 286 268 259 277 275 299 310
175 184 183 181 193 186 199 206 215 229 241 249 251 254 266 270 260 268 283 273 195 306 175 211 194 230 260 314 356 332 327 337 340 328 303 293 283 298 310 311 315 308 305
179 180 192 206 207 200 219 217 218 222 230 251 256 255 251 249 259 273 221 64 96 171 169 133 284 257 199 112 253 302 309 292 278 293 298 286 303 314 319 318 313 311 311